Overview Statistics Trail Chart Weather Telemetry Raw packets
 

This is the latest recevied weather packets stored in our database for station/object KI6PPU. If no packets are shown the sender has not sent any weather packets the latest 10 day(s).

<< 1 2 3 4 5 6 7 >>
Time Temp. Humidity Pressure Rain* Wind** Luminosity Snow
1788556510 22.78° C 51% 1016.5 hPa 0 mm - 643 W/m² -
1788556206 22.78° C 52% 1016.5 hPa 0 mm - 538 W/m² -
1788555905 22.78° C 52% 1016.6 hPa 0 mm - 689 W/m² -
1788555601 22.78° C 56% 1016.5 hPa 0 mm - 651 W/m² -
1788555296 22.78° C 51% 1016.6 hPa 0 mm - 717 W/m² -
1788554993 22.22° C 55% 1016.7 hPa 0 mm - 690 W/m² -
1788554688 22.22° C 53% 1016.7 hPa 0 mm - 648 W/m² -
1788554384 22.78° C 53% 1016.7 hPa 0 mm - 694 W/m² -
1788554081 22.78° C 54% 1016.8 hPa 0 mm - 735 W/m² -
1788553777 22.78° C 52% 1016.6 hPa 0 mm - 674 W/m² -
1788553472 22.22° C 53% 1016.8 hPa 0 mm - 503 W/m² -
1788553168 21.11° C 56% 1016.9 hPa 0 mm - 372 W/m² -
1788552863 21.67° C 55% 1016.6 hPa 0 mm - 569 W/m² -
1788552559 22.22° C 55% 1016.6 hPa 0 mm - 635 W/m² -
1788552257 21.67° C 56% 1016.8 hPa 0 mm - 571 W/m² -
1788551952 21.67° C 56% 1016.9 hPa 0 mm - 699 W/m² -
1788551650 21.11° C 60% 1016.9 hPa 0 mm - 630 W/m² -
1788551345 20.56° C 64% 1016.9 hPa 0 mm - 612 W/m² -
1788551044 20.56° C 64% 1017.1 hPa 0 mm - 424 W/m² -
1788550740 21.11° C 64% 1017 hPa 0 mm - 919 W/m² -
1788550435 21.11° C 61% 1017.1 hPa 0 mm - 892 W/m² -
1788550130 21.11° C 63% 1017.1 hPa 0 mm - 909 W/m² -
1788549825 21.67° C 68% 1017.1 hPa 0 mm - 539 W/m² -
1788549543 20° C 68% 1017.2 hPa 0 mm - 471 W/m² -
1788549218 19.44° C 72% 1017.3 hPa 0 mm - 367 W/m² -

* Rain latest hour (hover to see other rain measurements)
** Current wind speed in m/s (hover to see current wind gust speed)